Regional Weather Roundup
Issued by NWS

Home | Current Version | Previous Version | Text Only | Print | Product List | Glossary Off
Versions: 1 2 3 4 5 6 7 8 9 10 11 12 13 14 15 16 17 18 19 20 21 22 23 24 25 26 27

221
ASUS45 KSLC 220910
RWRUT

UTAH REGIONAL WEATHER ROUNDUP
NATIONAL WEATHER SERVICE SALT LAKE CITY UT
300 AM MDT FRI MAY 22 2015

UTZ001>011-023>025-221000-

NORTHERN UTAH

CITY           SKY/WX    TMP DP  RH WIND       PRES   REMARKS
BRIGHAM CITY   PTCLDY    51  45  78 NW6       29.89F
HILL AFB       CLOUDY    52  43  71 E12       29.91R
LOGAN          CLEAR     44  41  89 N3        29.91F
OGDEN          MOCLDY    50  45  83 S7        29.89F
PROVO AIRPORT  PTCLDY    46  39  76 E3        29.93R
SALT LAKE CITY MOCLDY    54  48  80 SE6       29.89S
VERNAL         CLOUDY    51  42  71 NE7       29.95R
WENDOVER       MOCLDY    52  46  82 W3        29.90F
HEBER CITY     CLOUDY    39  37  93 CALM      29.98S
WEST JORDAN    MOCLDY    48  46  93 CALM      29.91F

$$

UTZ012>022-026-027-221000-

SOUTHERN/CENTRAL UTAH

CITY           SKY/WX    TMP DP  RH WIND       PRES   REMARKS
BLANDING       MOCLDY    47  39  72 NE6       30.06S
BRYCE CANYON   MOCLDY    32  26  78 W9        30.02S WCI  24
CEDAR CITY     CLOUDY    50  28  42 SE7       29.92F
DELTA          MOCLDY    49  41  74 S6        29.91R
HANKSVILLE     CLOUDY    59  36  41 E13       29.91F
MILFORD        CLOUDY    51  36  56 NW6       29.90S
MOAB/CYNLANDS  MOCLDY    58  41  53 E6        29.88R
PRICE          CLOUDY    55  32  41 N8        29.92S
ST GEORGE      MOSUNNY   63  27  25 CALM      29.85S
KANAB          MOCLDY    43  32  65 NE5       29.97S

$$

REGIONAL REPORTS     COLORADO/ARIZONA

CITY           SKY/WX    TMP DP  RH WIND       PRES   REMARKS
CRAIG, CO      CLOUDY    46  41  82 E7        29.97S
GRAND JUNCTION LGT RAIN  49  45  86 SE18G29   29.97R
RIFLE          LGT RAIN  49  44  83 E9        29.98R
MONTROSE       CLOUDY    49  43  80 NE3       30.03F
CORTEZ         PTCLDY    48  41  76 NE5       30.01F
PAGE, AZ       NOT AVBL
GRAND CANYON   PTCLDY    30  27  88 CALM      30.02S
KINGMAN        PTCLDY    53  28  38 SE8       29.87F
FLAGSTAFF      PTCLDY    31  27  85 CALM      30.04S

$$

REGIONAL REPORTS    NEVADA/IDAHO/WYOMING

CITY           SKY/WX    TMP DP  RH WIND       PRES   REMARKS
LAS VEGAS, NV  CLOUDY    66  38  35 S14       29.75S
ELY            CLOUDY    41  37  86 S8        29.97S
ELKO           CLOUDY    50  44  80 S5        29.93S
POCATELLO, ID  CLEAR     49  46  90 E8        29.93S
BURLEY         CLOUDY    52  46  80 CALM      29.88F
EVANSTON, WY   CLOUDY    41  38  89 E9        29.99F
ROCK SPRINGS   CLOUDY    42  39  89 SW7       30.00F
KEMMERER       CLOUDY    41  36  81 NE7       30.02F

$$



USA.gov is the U.S. government's official web portal to all federal, state and local government web resources and services.